EW0199 Weather Reports


Display with metric or nautical units.
time (UTC)temp
F
wind
direction
speed
MPH
gust
MPH
rain 1hr
in
rain 24hr
in
rain mn
in
humidity
%
barometer
mb
20260508150343 56 271 5.0 14.0 0.00 0.00 0.00 34 1006.1
20260508145342 56 311 6.0 10.0 0.00 0.00 0.00 34 1006.2
20260508144344 56 274 3.0 12.0 0.00 0.00 0.00 35 1006.2
20260508143918 55 282 3.0 12.0 0.00 0.00 0.00 36 1006.4
20260508143341 55 317 3.0 15.0 0.00 0.00 0.00 36 1006.4
20260508142852 54 303 5.0 11.0 0.00 0.00 0.00 38 1006.5
20260508142420 54 286 2.0 9.0 0.00 0.00 0.00 39 1006.6
20260508141919 54 293 4.0 9.0 0.00 0.00 0.00 37 1006.6
20260508141341 53 174 4.0 8.0 0.00 0.00 0.00 39 1006.6
20260508140850 52 293 3.0 9.0 0.00 0.00 0.00 42 1006.7
20260508140401 52 310 4.0 9.0 0.00 0.00 0.00 41 1006.8
20260508135824 51 309 2.0 9.0 0.00 0.00 0.00 45 1006.8
20260508135347 51 279 3.0 9.0 0.00 0.00 0.00 45 1006.8
20260508134912 50 233 2.0 6.0 0.00 0.00 0.00 48 1006.8
20260508134420 49 247 1.0 6.0 0.00 0.00 0.00 49 1006.8
20260508133842 49 255 1.0 5.0 0.00 0.00 0.00 51 1006.9
20260508133408 48 215 1.0 5.0 0.00 0.00 0.00 53 1007.0
20260508132909 47 229 1.0 5.0 0.00 0.00 0.00 54 1007.0
20260508132328 46 306 1.0 4.0 0.00 0.00 0.00 56 1007.0
20260508131851 45 286 0.0 4.0 0.00 0.00 0.00 59 1007.1
20260508130849 43 216 0.0 5.0 0.00 0.00 0.00 63 1007.1
20260508130413 42 281 1.0 4.0 0.00 0.00 0.00 66 1007.1
20260508125833 41 300 1.0 3.0 0.00 0.00 0.00 67 1007.1
20260508125356 39 316 0.0 3.0 0.00 0.00 0.00 72 1007.2
20260508124919 38 223 0.0 2.0 0.00 0.00 0.00 73 1007.2
20260508124421 37 290 0.0 1.0 0.00 0.00 0.00 76 1007.2
20260508123837 36 287 0.0 2.0 0.00 0.00 0.00 80 1007.2
20260508123405 35 264 0.0 2.0 0.00 0.00 0.00 84 1007.2
20260508122913 33 20 0.0 0.0 0.00 0.00 0.00 88 1007.1
20260508122412 32 20 0.0 0.0 0.00 0.00 0.00 90 1007.2
20260508121832 31 21 0.0 0.0 0.00 0.00 0.00 92 1007.2
20260508121356 30 21 0.0 0.0 0.00 0.00 0.00 94 1007.1
20260508120920 29 21 0.0 0.0 0.00 0.00 0.00 95 1007.1
20260508120343 28 21 0.0 0.0 0.00 0.00 0.00 95 1007.1
20260508115906 28 20 0.0 0.0 0.00 0.00 0.00 95 1007.1
20260508114844 27 21 0.0 0.0 0.00 0.00 0.00 95 1007.0
20260508114407 27 21 0.0 0.0 0.00 0.00 0.00 95 1007.0
20260508113917 26 21 0.0 0.0 0.00 0.00 0.00 94 1007.0
20260508113336 26 21 0.0 0.0 0.00 0.00 0.00 94 1007.0
20260508112858 26 21 0.0 0.0 0.00 0.00 0.00 94 1007.0
20260508112421 26 21 0.0 0.0 0.00 0.00 0.00 94 1007.0
20260508111837 26 21 0.0 0.0 0.00 0.00 0.00 94 1007.0
20260508111406 26 20 0.0 0.0 0.00 0.00 0.00 94 1007.0
20260508110827 26 21 0.0 0.0 0.00 0.00 0.00 94 1007.0
20260508110338 26 21 0.0 0.0 0.00 0.00 0.00 94 1006.9
20260508105907 26 20 0.0 0.0 0.00 0.00 0.00 94 1006.9
20260508105431 26 21 0.0 0.0 0.00 0.00 0.00 94 1006.9
20260508104933 25 21 0.0 0.0 0.00 0.00 0.00 94 1006.9
20260508104340 25 20 0.0 0.0 0.00 0.00 0.00 94 1006.9
20260508103344 25 21 0.0 0.0 0.00 0.00 0.00 93 1006.9
20260508102345 26 21 0.0 0.0 0.00 0.00 0.00 93 1007.0
20260508101344 26 21 0.0 0.0 0.00 0.00 0.00 93 1007.0
20260508100912 26 21 0.0 0.0 0.00 0.00 0.00 93 1007.0
20260508100328 26 20 0.0 0.0 0.00 0.00 0.00 92 1007.0
20260508095847 27 20 0.0 0.0 0.00 0.00 0.00 92 1007.0
20260508095354 27 21 0.0 0.0 0.00 0.00 0.00 92 1007.1
20260508094854 27 21 0.0 0.0 0.00 0.00 0.00 92 1007.2
20260508094418 27 21 0.0 0.0 0.00 0.00 0.00 92 1007.3
20260508093836 27 21 0.0 0.0 0.00 0.00 0.00 91 1007.3
20260508093404 28 20 0.0 0.0 0.00 0.00 0.00 91 1007.3
20260508092933 28 20 0.0 0.0 0.00 0.00 0.00 91 1007.1
20260508092441 28 20 0.0 0.0 0.00 0.00 0.00 91 1007.3
20260508091845 28 20 0.0 0.0 0.00 0.00 0.00 90 1007.3
20260508090841 29 21 0.0 0.0 0.00 0.00 0.00 90 1007.3
20260508090410 29 21 0.0 0.0 0.00 0.00 0.00 90 1007.3
20260508085912 29 21 0.0 0.0 0.00 0.00 0.00 89 1007.4
20260508085335 29 20 0.0 0.0 0.00 0.00 0.00 89 1007.4
20260508084858 30 20 0.0 0.0 0.00 0.00 0.00 89 1007.4
20260508084413 30 20 0.0 0.0 0.00 0.00 0.00 89 1007.4
20260508083839 30 20 0.0 0.0 0.00 0.00 0.00 89 1007.5
20260508083407 30 21 0.0 0.0 0.00 0.00 0.00 88 1007.5
20260508082908 30 21 0.0 0.0 0.00 0.00 0.00 88 1007.4
20260508082323 30 21 0.0 0.0 0.00 0.00 0.00 87 1007.4
20260508081846 31 21 0.0 0.0 0.00 0.00 0.00 87 1007.5
20260508080845 31 21 0.0 0.0 0.00 0.00 0.00 88 1007.4
20260508080346 31 20 0.0 0.0 0.00 0.00 0.00 87 1007.5
20260508075346 31 21 0.0 0.0 0.00 0.00 0.00 87 1007.6
20260508074910 30 21 0.0 0.0 0.00 0.00 0.00 87 1007.6
20260508074332 31 21 0.0 0.0 0.00 0.00 0.00 87 1007.7
20260508073902 31 21 0.0 0.0 0.00 0.00 0.00 87 1007.6
20260508072930 31 21 0.0 0.0 0.00 0.00 0.00 87 1007.7
20260508072324 31 21 0.0 0.0 0.00 0.00 0.00 86 1007.8
20260508071852 31 20 0.0 0.0 0.00 0.00 0.00 86 1007.8
20260508071415 31 21 0.0 0.0 0.00 0.00 0.00 87 1007.9
20260508070832 31 21 0.0 0.0 0.00 0.00 0.00 86 1007.8
20260508070400 31 21 0.0 0.0 0.00 0.00 0.00 85 1007.9
20260508065827 31 20 0.0 0.0 0.00 0.00 0.00 85 1007.9
20260508065334 31 20 0.0 0.0 0.00 0.00 0.00 85 1007.9
20260508064839 31 21 0.0 0.0 0.00 0.00 0.00 84 1008.0
20260508064325 31 21 0.0 0.0 0.00 0.00 0.00 85 1008.0
20260508063831 31 21 0.0 0.0 0.00 0.00 0.00 84 1008.1
20260508063343 31 20 0.0 0.0 0.00 0.00 0.00 85 1008.1
20260508062828 31 20 0.0 0.0 0.00 0.00 0.00 85 1008.2
20260508062354 31 21 0.0 0.0 0.00 0.00 0.00 84 1008.2
20260508061900 32 21 0.0 0.0 0.00 0.00 0.00 85 1008.3
20260508061327 31 21 0.0 0.0 0.00 0.00 0.00 85 1008.3
20260508060833 31 21 0.0 0.0 0.00 0.00 0.00 85 1008.4
20260508060340 31 20 0.0 0.0 0.00 0.00 0.00 85 1008.4
20260508055825 31 21 0.0 0.0 0.00 0.00 0.00 84 1008.3
20260508055330 32 20 0.0 0.0 0.00 0.00 0.00 84 1008.3
20260508054856 32 21 0.0 0.0 0.00 0.00 0.00 84 1008.3
20260508054401 32 20 0.0 0.0 0.00 0.00 0.00 84 1008.4
20260508053825 32 21 0.0 0.0 0.00 0.00 0.00 85 1008.5
20260508053331 33 21 0.0 0.0 0.00 0.00 0.00 85 1008.5
20260508052856 33 21 0.0 0.0 0.00 0.00 0.00 85 1008.5
20260508052345 33 21 0.0 0.0 0.00 0.00 0.00 84 1008.5
20260508051829 33 21 0.0 0.0 0.00 0.00 0.00 84 1008.6
20260508051336 33 21 0.0 0.0 0.00 0.00 0.00 83 1008.6
20260508050842 33 21 0.0 0.0 0.00 0.00 0.00 83 1008.6
20260508050329 33 21 0.0 0.0 0.00 0.00 0.00 80 1008.6
20260508045345 33 21 0.0 0.0 0.00 0.00 0.00 79 1008.7
20260508044348 34 21 0.0 0.0 0.00 0.00 0.00 78 1008.7
20260508043912 34 21 0.0 0.0 0.00 0.00 0.00 77 1008.8
20260508043414 35 21 0.0 0.0 0.00 0.00 0.00 75 1008.7
20260508042836 35 21 0.0 0.0 0.00 0.00 0.00 74 1008.7
20260508042352 35 21 0.0 0.0 0.00 0.00 0.00 73 1008.6
20260508041919 35 21 0.0 0.0 0.00 0.00 0.00 73 1008.7
20260508041346 36 21 0.0 1.0 0.00 0.00 0.00 72 1008.7
20260508040906 36 21 0.0 1.0 0.00 0.00 0.00 72 1008.7
20260508040322 36 328 0.0 0.0 0.00 0.00 0.00 71 1008.6
20260508035843 36 328 0.0 0.0 0.00 0.00 0.00 71 1008.7
20260508034845 37 328 0.0 0.0 0.00 0.00 0.00 69 1008.7
20260508033843 38 328 0.0 0.0 0.00 0.00 0.00 68 1008.7
20260508033408 38 328 0.0 0.0 0.00 0.00 0.00 68 1008.7
20260508032829 38 328 0.0 0.0 0.00 0.00 0.00 67 1008.7
20260508032353 38 328 0.0 0.0 0.00 0.00 0.00 66 1008.8
20260508031920 38 328 0.0 2.0 0.00 0.00 0.00 66 1008.8
20260508031341 38 324 0.0 2.0 0.00 0.00 0.00 67 1008.8
20260508030912 39 336 0.0 0.0 0.00 0.00 0.00 63 1008.7
20260508030336 40 336 0.0 0.0 0.00 0.00 0.00 61 1008.6
20260508025906 40 336 0.0 0.0 0.00 0.00 0.00 58 1008.6
20260508024850 42 336 0.0 1.0 0.00 0.00 0.00 58 1008.7
20260508024351 42 290 0.0 0.0 0.00 0.00 0.00 56 1008.6
20260508023916 43 290 0.0 0.0 0.00 0.00 0.00 53 1008.7
20260508023337 43 290 0.0 2.0 0.00 0.00 0.00 53 1008.7
20260508022904 44 324 0.0 8.0 0.00 0.00 0.00 53 1008.7
20260508021841 38 195 0.0 1.0 0.00 0.00 0.00 66 1008.7
20260508021409 38 257 0.0 0.0 0.00 0.00 0.00 68 1008.6
20260508020829 38 257 0.0 0.0 0.00 0.00 0.00 66 1008.5
20260508020348 38 257 0.0 0.0 0.00 0.00 0.00 66 1008.5
20260508015911 38 257 0.0 0.0 0.00 0.00 0.00 65 1008.4
20260508015330 38 257 0.0 0.0 0.00 0.00 0.00 67 1008.3
20260508014849 38 257 0.0 0.0 0.00 0.00 0.00 67 1008.2
20260508014419 39 257 0.0 0.0 0.00 0.00 0.00 63 1008.2
20260508013839 39 257 0.0 0.0 0.00 0.00 0.00 61 1008.1
20260508012850 41 257 0.0 0.0 0.00 0.00 0.00 59 1008.0
20260508012414 41 257 0.0 0.0 0.00 0.00 0.00 53 1008.0
20260508011830 43 257 0.0 0.0 0.00 0.00 0.00 51 1008.0
20260508011341 44 257 0.0 0.0 0.00 0.00 0.00 50 1007.9
20260508010848 45 257 0.0 0.0 0.00 0.00 0.00 48 1007.9
20260508005846 46 257 0.0 0.0 0.00 0.00 0.00 42 1007.9
20260508005347 47 257 0.0 1.0 0.00 0.00 0.00 42 1007.8
20260508004344 49 267 0.0 0.0 0.00 0.00 0.00 40 1007.8
20260508003935 50 267 0.0 1.0 0.00 0.00 0.00 38 1007.8
20260508003335 50 268 0.0 6.0 0.00 0.00 0.00 39 1007.9
20260508002857 50 309 2.0 6.0 0.00 0.00 0.00 36 1007.8
20260508002406 50 229 3.0 6.0 0.00 0.00 0.00 36 1007.7
20260508001824 51 283 1.0 6.0 0.00 0.00 0.00 37 1007.7
20260508001347 51 255 2.0 9.0 0.00 0.00 0.00 37 1007.7
20260508000910 51 289 2.0 9.0 0.00 0.00 0.00 36 1007.7
20260508000419 52 293 3.0 9.0 0.00 0.00 0.00 36 1007.7
20260507235838 52 271 2.0 7.0 0.00 0.00 0.00 35 1007.7
20260507235406 52 264 1.0 5.0 0.00 0.00 0.00 36 1007.7
20260507234832 52 312 1.0 5.0 0.00 0.00 0.00 37 1007.6
20260507234359 51 96 1.0 5.0 0.00 0.00 0.00 36 1007.7
20260507233922 51 267 1.0 6.0 0.00 0.00 0.00 37 1007.7
20260507233346 50 257 2.0 6.0 0.00 0.00 0.00 39 1007.8
20260507232831 50 305 1.0 7.0 0.00 0.00 0.00 39 1007.9
20260507232355 50 316 3.0 7.0 0.00 0.00 0.00 39 1007.8
20260507231920 50 323 2.0 7.0 0.00 0.00 0.00 38 1007.9
20260507231430 50 312 1.0 3.0 0.00 0.00 0.00 38 1007.8
20260507230909 50 286 0.0 6.0 0.00 0.00 0.00 39 1007.9
20260507230322 50 285 2.0 6.0 0.00 0.00 0.00 38 1008.0
20260507225842 50 283 2.0 7.0 0.00 0.00 0.00 39 1008.0
20260507225352 50 291 1.0 7.0 0.00 0.00 0.00 40 1008.1
20260507224855 49 316 1.0 7.0 0.00 0.00 0.00 39 1008.0
20260507224403 49 339 2.0 4.0 0.00 0.00 0.00 40 1008.0
20260507223909 49 321 1.0 3.0 0.00 0.00 0.00 39 1008.1
20260507223329 49 283 0.0 2.0 0.00 0.00 0.00 38 1008.1
20260507222856 49 305 0.0 2.0 0.00 0.00 0.00 40 1008.1
20260507222405 49 283 0.0 5.0 0.00 0.00 0.00 40 1008.1
20260507221824 50 299 1.0 6.0 0.00 0.00 0.00 38 1008.1
20260507221347 50 293 2.0 6.0 0.00 0.00 0.00 40 1008.0
20260507220913 49 282 3.0 8.0 0.00 0.00 0.00 41 1008.1
20260507220420 49 312 3.0 12.0 0.00 0.00 0.00 40 1008.1
20260507215919 49 321 5.0 12.0 0.00 0.00 0.00 40 1008.1
20260507215345 49 319 5.0 11.0 0.00 0.00 0.00 40 1008.1
20260507214340 49 305 5.0 10.0 0.00 0.00 0.00 38 1008.1
20260507213908 50 305 4.0 7.0 0.00 0.00 0.00 39 1008.1
20260507213327 50 306 4.0 11.0 0.00 0.00 0.00 39 1008.1
20260507212855 50 253 4.0 11.0 0.00 0.00 0.00 37 1008.1
20260507212420 50 302 4.0 8.0 0.00 0.00 0.00 37 1008.1
20260507211840 50 305 2.0 7.0 0.00 0.00 0.00 40 1008.0
20260507211405 49 336 2.0 6.0 0.00 0.00 0.00 40 1008.1
20260507210909 49 293 3.0 9.0 0.00 0.00 0.00 42 1008.2
20260507210419 49 347 2.0 11.0 0.00 0.00 0.00 42 1008.3
20260507205904 49 312 4.0 11.0 0.00 0.00 0.00 41 1008.3
20260507205324 49 331 3.0 13.0 0.00 0.00 0.00 41 1008.3
20260507204848 49 316 6.0 13.0 0.00 0.00 0.00 39 1008.3
20260507204410 49 283 4.0 10.0 0.00 0.00 0.00 39 1008.3
20260507203856 50 240 4.0 8.0 0.00 0.00 0.00 38 1008.4
20260507203415 50 295 3.0 8.0 0.00 0.00 0.00 40 1008.4
20260507202915 50 273 4.0 10.0 0.00 0.00 0.00 40 1008.5
20260507202422 49 245 1.0 10.0 0.00 0.00 0.00 40 1008.5
20260507201837 49 290 5.0 10.0 0.00 0.00 0.00 41 1008.5
20260507201400 48 299 2.0 6.0 0.00 0.00 0.00 40 1008.5
20260507200907 48 313 3.0 6.0 0.00 0.00 0.00 40 1008.5
20260507200324 48 305 2.0 7.0 0.00 0.00 0.00 41 1008.6
20260507195845 48 309 4.0 11.0 0.00 0.00 0.00 41 1008.6
20260507194845 49 335 2.0 12.0 0.00 0.00 0.00 40 1008.7
20260507193847 50 271 3.0 9.0 0.00 0.00 0.00 41 1008.7
20260507192849 49 268 5.0 11.0 0.00 0.00 0.00 44 1008.9
20260507192441 49 302 3.0 9.0 0.00 0.00 0.00 42 1008.9
20260507191927 49 312 4.0 9.0 0.00 0.00 0.00 43 1008.9
20260507191415 48 309 1.0 8.0 0.00 0.00 0.00 46 1009.0
20260507190832 48 320 2.0 9.0 0.00 0.00 0.00 48 1009.0
20260507190353 47 357 2.0 9.0 0.00 0.00 0.00 48 1009.0
20260507185915 47 300 5.0 11.0 0.00 0.00 0.00 48 1009.1
20260507185416 47 248 6.0 11.0 0.00 0.00 0.00 48 1009.1
20260507184832 47 23 4.0 9.0 0.00 0.00 0.00 50 1009.1
20260507184354 46 305 4.0 9.0 0.00 0.00 0.00 51 1009.2
20260507183916 46 345 3.0 8.0 0.00 0.00 0.00 51 1009.2
20260507183343 46 300 4.0 12.0 0.00 0.00 0.00 51 1009.2
20260507182346 47 299 5.0 13.0 0.00 0.00 0.00 45 1009.1
20260507181909 47 298 2.0 7.0 0.00 0.00 0.00 44 1008.9
20260507181328 47 321 2.0 9.0 0.00 0.00 0.00 42 1008.9
20260507180851 47 263 4.0 11.0 0.00 0.00 0.00 41 1009.0
20260507180400 48 283 2.0 11.0 0.00 0.00 0.00 42 1009.1
20260507175921 48 279 2.0 14.0 0.00 0.00 0.00 40 1009.0
20260507175406 48 253 6.0 14.0 0.00 0.00 0.00 40 1009.1
20260507174929 48 283 3.0 9.0 0.00 0.00 0.00 41 1009.2
20260507174414 48 292 3.0 9.0 0.00 0.00 0.00 42 1009.4
20260507173912 48 302 4.0 9.0 0.00 0.00 0.00 44 1009.4
20260507173334 48 305 2.0 8.0 0.00 0.00 0.00 44 1009.5
20260507172842 48 357 3.0 7.0 0.00 0.00 0.00 46 1009.4
20260507172410 47 293 2.0 8.0 0.00 0.00 0.00 47 1009.5
20260507171825 47 299 1.0 8.0 0.00 0.00 0.00 48 1009.7
20260507171347 47 293 5.0 8.0 0.00 0.00 0.00 46 1009.7
20260507170856 46 191 1.0 8.0 0.00 0.00 0.00 49 1009.8
20260507170403 46 150 2.0 7.0 0.00 0.00 0.00 51 1009.8
20260507165905 45 279 1.0 6.0 0.00 0.00 0.00 54 1009.9
20260507165404 44 294 1.0 7.0 0.00 0.00 0.00 55 1010.0
20260507164920 44 279 2.0 7.0 0.00 0.00 0.00 56 1010.2
20260507164342 44 257 2.0 7.0 0.00 0.00 0.00 55 1010.3
20260507163910 44 300 2.0 7.0 0.00 0.00 0.00 55 1010.3
20260507163333 44 283 2.0 8.0 0.00 0.00 0.00 53 1010.3
20260507162839 44 269 2.0 8.0 0.00 0.00 0.00 53 1010.4
20260507162347 45 285 4.0 8.0 0.00 0.00 0.00 52 1010.4
20260507161344 45 305 5.0 10.0 0.00 0.00 0.00 53 1010.2
20260507160900 45 321 4.0 9.0 0.00 0.00 0.00 53 1010.4
20260507160406 45 267 4.0 10.0 0.00 0.00 0.00 52 1010.4
20260507155930 45 273 3.0 13.0 0.00 0.00 0.00 53 1010.4
20260507155432 45 303 3.0 13.0 0.00 0.00 0.00 52 1010.4
20260507154934 45 299 5.0 11.0 0.00 0.00 0.00 52 1010.5
20260507154336 45 297 3.0 7.0 0.00 0.00 0.00 53 1010.5
20260507153900 45 180 3.0 7.0 0.00 0.00 0.00 54 1010.6
20260507153417 45 268 2.0 9.0 0.00 0.00 0.00 54 1010.6
20260507152841 44 333 3.0 11.0 0.00 0.00 0.00 55 1010.7
20260507152405 44 276 7.0 11.0 0.00 0.00 0.00 54 1010.7
20260507151853 44 258 3.0 9.0 0.00 0.00 0.00 55 1010.7
20260507151357 44 282 5.0 8.0 0.00 0.00 0.00 55 1010.8